owner,sensor,date,latitude,longitude,vertical_datum,wind_speed,wind_to_direction,wind_speed_of_gust,qcFlag 
TCOON,ioos:station:TCOON:057:1,2012-04-01T00:00:00Z,28.4460,-96.3961,0.0,6.2,150.0,,'1111122,1111122,1111122' 
TCOON,ioos:station:TCOON:057:1,2012-04-01T01:00:00Z,28.4460,-96.3961,0.0,6.2,150.0,,'1111122,1111122,1111122' 
TCOON,ioos:station:TCOON:057:1,2012-04-01T02:00:00Z,28.4460,-96.3961,0.0,7.2,170.0,,'1111122,1111122,1111122' 
TCOON,ioos:station:TCOON:057:1,2012-04-01T03:00:00Z,28.4460,-96.3961,0.0,7.2,170.0,,'1111122,1111122,1111122' 
TCOON,ioos:station:TCOON:057:1,2012-04-01T04:00:00Z,28.4460,-96.3961,0.0,6.2,190.0,,'1111122,1111122,1111122' 
TCOON,ioos:station:TCOON:057:1,2012-04-01T05:00:00Z,28.4460,-96.3961,0.0,6.2,190.0,,'1111122,1111122,1111122' 
TCOON,ioos:station:TCOON:057:1,2012-04-01T06:00:00Z,28.4460,-96.3961,0.0,6.2,200.0,,'1111122,1111122,1111122' 
TCOON,ioos:station:TCOON:057:1,2012-04-01T07:00:00Z,28.4460,-96.3961,0.0,7.7,200.0,,'1111122,1111122,1111122' 
TCOON,ioos:station:TCOON:057:1,2012-04-01T08:00:00Z,28.4460,-96.3961,0.0,6.2,200.0,,'1111122,1111122,1111122' 
TCOON,ioos:station:TCOON:057:1,2012-04-01T09:00:00Z,28.4460,-96.3961,0.0,6.2,180.0,,'1111122,1111122,1111122' 
TCOON,ioos:station:TCOON:057:1,2012-04-01T10:00:00Z,28.4460,-96.3961,0.0,5.7,190.0,,'1111122,1111122,1111122' 
TCOON,ioos:station:TCOON:057:1,2012-04-01T11:00:00Z,28.4460,-96.3961,0.0,6.2,180.0,,'1111122,1111122,1111122' 
TCOON,ioos:station:TCOON:057:1,2012-04-01T12:00:00Z,28.4460,-96.3961,0.0,5.1,180.0,,'1111122,1111122,1111122' 
TCOON,ioos:station:TCOON:057:1,2012-04-01T13:00:00Z,28.4460,-96.3961,0.0,5.1,170.0,,'1111122,1111122,1111122' 
TCOON,ioos:station:TCOON:057:1,2012-04-01T14:00:00Z,28.4460,-96.3961,0.0,5.7,180.0,,'1111122,1111122,1111122' 
TCOON,ioos:station:TCOON:057:1,2012-04-01T15:00:00Z,28.4460,-96.3961,0.0,5.1,170.0,,'1111122,1111122,1111122' 
TCOON,ioos:station:TCOON:057:1,2012-04-01T16:00:00Z,28.4460,-96.3961,0.0,6.7,150.0,,'1111122,1111122,1111122' 
TCOON,ioos:station:TCOON:057:1,2012-04-01T17:00:00Z,28.4460,-96.3961,0.0,6.2,150.0,,'1111122,1111122,1111122' 
TCOON,ioos:station:TCOON:057:1,2012-04-01T18:00:00Z,28.4460,-96.3961,0.0,7.7,150.0,,'1111122,1111122,1111122' 
TCOON,ioos:station:TCOON:057:1,2012-04-01T19:00:00Z,28.4460,-96.3961,0.0,7.7,160.0,,'1111122,1111122,1111122' 
TCOON,ioos:station:TCOON:057:1,2012-04-01T20:00:00Z,28.4460,-96.3961,0.0,6.2,160.0,,'1111122,1111122,1111122' 
TCOON,ioos:station:TCOON:057:1,2012-04-06T11:00:00Z,28.4460,-96.3961,0.0,3.6,80.0,,'1111122,1111122,1111122' 
TCOON,ioos:station:TCOON:057:1,2012-04-06T12:00:00Z,28.4460,-96.3961,0.0,4.1,80.0,,'1111122,1111122,1111122' 
TCOON,ioos:station:TCOON:057:1,2012-04-06T13:00:00Z,28.4460,-96.3961,0.0,4.6,80.0,,'1111122,1111122,1111122' 
TCOON,ioos:station:TCOON:057:1,2012-04-06T14:00:00Z,28.4460,-96.3961,0.0,5.1,70.0,,'1111122,1111122,1111122' 
TCOON,ioos:station:TCOON:057:1,2012-04-06T15:00:00Z,28.4460,-96.3961,0.0,5.7,90.0,,'1111122,1111122,1111122' 
TCOON,ioos:station:TCOON:057:1,2012-04-06T16:00:00Z,28.4460,-96.3961,0.0,5.7,100.0,,'1111122,1111122,1111122' 
TCOON,ioos:station:TCOON:057:1,2012-04-06T17:00:00Z,28.4460,-96.3961,0.0,6.2,110.0,,'1111122,1111122,1111122' 
TCOON,ioos:station:TCOON:057:1,2012-04-06T18:00:00Z,28.4460,-96.3961,0.0,4.6,110.0,,'1111122,1111122,1111122' 
TCOON,ioos:station:TCOON:057:1,2012-04-06T19:00:00Z,28.4460,-96.3961,0.0,4.6,110.0,,'1111122,1111122,1111122' 
TCOON,ioos:station:TCOON:057:1,2012-04-06T20:00:00Z,28.4460,-96.3961,0.0,5.1,120.0,,'1111122,1111122,1111122' 
TCOON,ioos:station:TCOON:057:1,2012-04-06T21:00:00Z,28.4460,-96.3961,0.0,5.1,130.0,,'1111122,1111122,1111122' 
TCOON,ioos:station:TCOON:057:1,2012-04-06T22:00:00Z,28.4460,-96.3961,0.0,5.7,110.0,,'1111122,1111122,1111122' 
TCOON,ioos:station:TCOON:057:1,2012-04-06T23:00:00Z,28.4460,-96.3961,0.0,5.7,110.0,,'1111122,1111122,1111122' 
TCOON,ioos:station:TCOON:057:1,2012-04-07T00:00:00Z,28.4460,-96.3961,0.0,7.2,100.0,,'1111122,1111122,1111122' 
TCOON,ioos:station:TCOON:057:1,2012-04-07T01:00:00Z,28.4460,-96.3961,0.0,7.7,100.0,,'1111122,1111122,1111122' 
TCOON,ioos:station:TCOON:057:1,2012-04-07T02:00:00Z,28.4460,-96.3961,0.0,7.2,100.0,,'1111122,1111122,1111122' 
TCOON,ioos:station:TCOON:057:1,2012-04-07T03:00:00Z,28.4460,-96.3961,0.0,7.7,110.0,,'1111122,1111122,1111122' 
TCOON,ioos:station:TCOON:057:1,2012-04-07T04:00:00Z,28.4460,-96.3961,0.0,7.7,110.0,,'1111122,1111122,1111122' 
TCOON,ioos:station:TCOON:057:1,2012-04-07T05:00:00Z,28.4460,-96.3961,0.0,7.7,120.0,,'1111122,1111122,1111122' 
TCOON,ioos:station:TCOON:057:1,2012-04-07T06:00:00Z,28.4460,-96.3961,0.0,6.7,130.0,,'1111122,1111122,1111122' 
TCOON,ioos:station:TCOON:057:1,2012-04-07T07:00:00Z,28.4460,-96.3961,0.0,6.7,130.0,,'1111122,1111122,1111122' 
TCOON,ioos:station:TCOON:057:1,2012-04-07T08:00:00Z,28.4460,-96.3961,0.0,5.7,130.0,,'1111122,1111122,1111122' 
TCOON,ioos:station:TCOON:057:1,2012-04-07T09:00:00Z,28.4460,-96.3961,0.0,5.7,120.0,,'1111122,1111122,1111122' 
TCOON,ioos:station:TCOON:057:1,2012-04-07T10:00:00Z,28.4460,-96.3961,0.0,6.7,100.0,,'1111122,1111122,1111122' 
TCOON,ioos:station:TCOON:057:1,2012-04-07T11:00:00Z,28.4460,-96.3961,0.0,7.7,120.0,,'1111122,1111122,1111122' 
TCOON,ioos:station:TCOON:057:1,2012-04-07T12:00:00Z,28.4460,-96.3961,0.0,8.2,130.0,,'1111122,1111122,1111122' 
TCOON,ioos:station:TCOON:057:1,2012-04-07T13:00:00Z,28.4460,-96.3961,0.0,8.2,110.0,,'1111122,1111122,1111122' 
TCOON,ioos:station:TCOON:057:1,2012-04-07T14:00:00Z,28.4460,-96.3961,0.0,7.7,120.0,,'1111122,1111122,1111122' 
TCOON,ioos:station:TCOON:057:1,2012-04-07T15:00:00Z,28.4460,-96.3961,0.0,7.2,120.0,,'1111122,1111122,1111122' 
TCOON,ioos:station:TCOON:057:1,2012-04-07T16:00:00Z,28.4460,-96.3961,0.0,6.7,130.0,,'1111122,1111122,1111122' 
TCOON,ioos:station:TCOON:057:1,2012-04-07T17:00:00Z,28.4460,-96.3961,0.0,7.2,130.0,,'1111122,1111122,1111122' 
TCOON,ioos:station:TCOON:057:1,2012-04-07T18:00:00Z,28.4460,-96.3961,0.0,7.2,110.0,,'1111122,1111122,1111122' 
TCOON,ioos:station:TCOON:057:1,2012-04-07T19:00:00Z,28.4460,-96.3961,0.0,7.2,120.0,,'1111122,1111122,1111122' 
TCOON,ioos:station:TCOON:057:1,2012-04-07T20:00:00Z,28.4460,-96.3961,0.0,7.7,120.0,,'1111122,1111122,1111122' 
TCOON,ioos:station:TCOON:057:1,2012-04-07T21:00:00Z,28.4460,-96.3961,0.0,7.2,110.0,,'1111122,1111122,1111122' 
TCOON,ioos:station:TCOON:057:1,2012-04-07T22:00:00Z,28.4460,-96.3961,0.0,6.2,120.0,,'1111122,1111122,1111122' 
TCOON,ioos:station:TCOON:057:1,2012-04-07T23:00:00Z,28.4460,-96.3961,0.0,6.2,120.0,,'1111122,1111122,1111122' 
TCOON,ioos:station:TCOON:057:1,2012-04-08T00:00:00Z,28.4460,-96.3961,0.0,6.7,120.0,,'1111122,1111122,1111122' 
TCOON,ioos:station:TCOON:057:1,2012-04-08T01:00:00Z,28.4460,-96.3961,0.0,6.7,110.0,,'1111122,1111122,1111122' 
TCOON,ioos:station:TCOON:057:1,2012-04-08T02:00:00Z,28.4460,-96.3961,0.0,7.7,110.0,,'1111122,1111122,1111122' 
TCOON,ioos:station:TCOON:057:1,2012-04-08T03:00:00Z,28.4460,-96.3961,0.0,7.7,100.0,,'1111122,1111122,1111122' 
TCOON,ioos:station:TCOON:057:1,2012-04-08T04:00:00Z,28.4460,-96.3961,0.0,6.7,100.0,,'1111122,1111122,1111122' 
TCOON,ioos:station:TCOON:057:1,2012-04-08T05:00:00Z,28.4460,-96.3961,0.0,6.2,100.0,,'1111122,1111122,1111122' 
TCOON,ioos:station:TCOON:057:1,2012-04-08T06:00:00Z,28.4460,-96.3961,0.0,5.7,100.0,,'1111122,1111122,1111122' 
TCOON,ioos:station:TCOON:057:1,2012-04-08T07:00:00Z,28.4460,-96.3961,0.0,5.7,100.0,,'1111122,1111122,1111122' 
TCOON,ioos:station:TCOON:057:1,2012-04-08T08:00:00Z,28.4460,-96.3961,0.0,4.6,110.0,,'1111122,1111122,1111122' 
TCOON,ioos:station:TCOON:057:1,2012-04-08T09:00:00Z,28.4460,-96.3961,0.0,4.1,100.0,,'1111122,1111122,1111122' 
TCOON,ioos:station:TCOON:057:1,2012-04-08T10:00:00Z,28.4460,-96.3961,0.0,4.1,100.0,,'1111122,1111122,1111122' 
TCOON,ioos:station:TCOON:057:1,2012-04-08T11:00:00Z,28.4460,-96.3961,0.0,5.1,90.0,,'1111122,1111122,1111122' 
TCOON,ioos:station:TCOON:057:1,2012-04-08T12:00:00Z,28.4460,-96.3961,0.0,5.1,90.0,,'1111122,1111122,1111122' 
TCOON,ioos:station:TCOON:057:1,2012-04-08T13:00:00Z,28.4460,-96.3961,0.0,3.6,90.0,,'1111122,1111122,1111122' 
TCOON,ioos:station:TCOON:057:1,2012-04-08T14:00:00Z,28.4460,-96.3961,0.0,3.6,80.0,,'1111122,1111122,1111122' 
TCOON,ioos:station:TCOON:057:1,2012-04-08T15:00:00Z,28.4460,-96.3961,0.0,5.1,60.0,,'1111122,1111122,1111122' 
TCOON,ioos:station:TCOON:057:1,2012-04-08T16:00:00Z,28.4460,-96.3961,0.0,6.2,70.0,,'1111122,1111122,1111122' 
TCOON,ioos:station:TCOON:057:1,2012-04-08T17:00:00Z,28.4460,-96.3961,0.0,4.6,80.0,,'1111122,1111122,1111122' 
TCOON,ioos:station:TCOON:057:1,2012-04-08T18:00:00Z,28.4460,-96.3961,0.0,6.2,110.0,,'1111122,1111122,1111122' 
TCOON,ioos:station:TCOON:057:1,2012-04-08T19:00:00Z,28.4460,-96.3961,0.0,6.2,100.0,,'1111122,1111122,1111122' 
TCOON,ioos:station:TCOON:057:1,2012-04-08T20:00:00Z,28.4460,-96.3961,0.0,6.2,110.0,,'1111122,1111122,1111122' 
TCOON,ioos:station:TCOON:057:1,2012-04-08T21:00:00Z,28.4460,-96.3961,0.0,5.7,130.0,,'1111122,1111122,1111122' 
TCOON,ioos:station:TCOON:057:1,2012-04-08T22:00:00Z,28.4460,-96.3961,0.0,6.2,120.0,,'1111122,1111122,1111122' 
TCOON,ioos:station:TCOON:057:1,2012-04-08T23:00:00Z,28.4460,-96.3961,0.0,5.7,130.0,,'1111122,1111122,1111122' 
TCOON,ioos:station:TCOON:057:1,2012-04-09T00:00:00Z,28.4460,-96.3961,0.0,6.4,127.0,7.8,'11111222,11111222,11111222' 
TCOON,ioos:station:TCOON:057:1,2012-04-09T01:00:00Z,28.4460,-96.3961,0.0,6.7,120.0,,'1111122,1111122,1111122' 
TCOON,ioos:station:TCOON:057:1,2012-04-09T02:00:00Z,28.4460,-96.3961,0.0,6.2,130.0,,'1111122,1111122,1111122' 
TCOON,ioos:station:TCOON:057:1,2012-04-09T03:00:00Z,28.4460,-96.3961,0.0,6.2,140.0,,'1111122,1111122,1111122' 
TCOON,ioos:station:TCOON:057:1,2012-04-09T04:00:00Z,28.4460,-96.3961,0.0,5.7,140.0,,'1111122,1111122,1111122' 
TCOON,ioos:station:TCOON:057:1,2012-04-09T05:00:00Z,28.4460,-96.3961,0.0,4.6,140.0,,'1111122,1111122,1111122' 
TCOON,ioos:station:TCOON:057:1,2012-04-09T06:00:00Z,28.4460,-96.3961,0.0,4.6,140.0,,'1111122,1111122,1111122' 
TCOON,ioos:station:TCOON:057:1,2012-04-09T07:00:00Z,28.4460,-96.3961,0.0,5.1,150.0,,'1111122,1111122,1111122' 
TCOON,ioos:station:TCOON:057:1,2012-04-09T08:00:00Z,28.4460,-96.3961,0.0,4.6,150.0,,'1111122,1111122,1111122' 
TCOON,ioos:station:TCOON:057:1,2012-04-09T09:00:00Z,28.4460,-96.3961,0.0,3.1,170.0,,'1111122,1111122,1111122' 
TCOON,ioos:station:TCOON:057:1,2012-04-09T10:00:00Z,28.4460,-96.3961,0.0,2.1,220.0,,'1111122,1111122,1111122' 
TCOON,ioos:station:TCOON:057:1,2012-04-09T11:00:00Z,28.4460,-96.3961,0.0,1.5,200.0,,'1111122,1111122,1111122' 
TCOON,ioos:station:TCOON:057:1,2012-04-09T12:00:00Z,28.4460,-96.3961,0.0,0.5,230.0,,'1111122,1111122,1111122' 
TCOON,ioos:station:TCOON:057:1,2012-04-09T13:00:00Z,28.4460,-96.3961,0.0,1.0,350.0,,'1111122,1111122,1111122' 
TCOON,ioos:station:TCOON:057:1,2012-04-09T14:00:00Z,28.4460,-96.3961,0.0,2.1,40.0,,'1111122,1111122,1111122' 
TCOON,ioos:station:TCOON:057:1,2012-04-09T15:00:00Z,28.4460,-96.3961,0.0,4.1,60.0,,'1111122,1111122,1111122' 
TCOON,ioos:station:TCOON:057:1,2012-04-09T16:00:00Z,28.4460,-96.3961,0.0,3.6,70.0,,'1111122,1111122,1111122' 
TCOON,ioos:station:TCOON:057:1,2012-04-09T17:00:00Z,28.4460,-96.3961,0.0,3.6,110.0,,'1111122,1111122,1111122' 
TCOON,ioos:station:TCOON:057:1,2012-04-09T18:00:00Z,28.4460,-96.3961,0.0,5.1,130.0,,'1111122,1111122,1111122' 
TCOON,ioos:station:TCOON:057:1,2012-04-09T19:00:00Z,28.4460,-96.3961,0.0,4.1,130.0,,'1111122,1111122,1111122' 
TCOON,ioos:station:TCOON:057:1,2012-04-09T20:00:00Z,28.4460,-96.3961,0.0,4.1,140.0,,'1111122,1111122,1111122' 
TCOON,ioos:station:TCOON:057:1,2012-04-09T21:00:00Z,28.4460,-96.3961,0.0,4.1,140.0,,'1111122,1111122,1111122' 
TCOON,ioos:station:TCOON:057:1,2012-04-09T22:00:00Z,28.4460,-96.3961,0.0,4.1,140.0,,'1111122,1111122,1111122' 
TCOON,ioos:station:TCOON:057:1,2012-04-09T23:00:00Z,28.4460,-96.3961,0.0,3.6,150.0,,'1111122,1111122,1111122' 
TCOON,ioos:station:TCOON:057:1,2012-04-10T00:00:00Z,28.4460,-96.3961,0.0,4.6,150.0,,'1111122,1111122,1111122' 
TCOON,ioos:station:TCOON:057:1,2012-04-10T01:00:00Z,28.4460,-96.3961,0.0,4.1,160.0,,'1111122,1111122,1111122' 
TCOON,ioos:station:TCOON:057:1,2012-04-10T02:00:00Z,28.4460,-96.3961,0.0,4.6,160.0,,'1111122,1111122,1111122' 
TCOON,ioos:station:TCOON:057:1,2012-04-10T03:00:00Z,28.4460,-96.3961,0.0,4.1,170.0,,'1111122,1111122,1111122' 
TCOON,ioos:station:TCOON:057:1,2012-04-10T04:00:00Z,28.4460,-96.3961,0.0,4.1,170.0,,'1111122,1111122,1111122' 
TCOON,ioos:station:TCOON:057:1,2012-04-10T05:00:00Z,28.4460,-96.3961,0.0,4.6,160.0,,'1111122,1111122,1111122' 
TCOON,ioos:station:TCOON:057:1,2012-04-10T06:00:00Z,28.4460,-96.3961,0.0,3.1,160.0,,'1111122,1111122,1111122' 
TCOON,ioos:station:TCOON:057:1,2012-04-10T07:00:00Z,28.4460,-96.3961,0.0,3.1,150.0,,'1111122,1111122,1111122' 
TCOON,ioos:station:TCOON:057:1,2012-04-10T08:00:00Z,28.4460,-96.3961,0.0,4.1,160.0,,'1111122,1111122,1111122' 
TCOON,ioos:station:TCOON:057:1,2012-04-10T09:00:00Z,28.4460,-96.3961,0.0,3.1,150.0,,'1111122,1111122,1111122' 
TCOON,ioos:station:TCOON:057:1,2012-04-10T10:00:00Z,28.4460,-96.3961,0.0,2.6,140.0,,'1111122,1111122,1111122' 
TCOON,ioos:station:TCOON:057:1,2012-04-10T11:00:00Z,28.4460,-96.3961,0.0,2.6,130.0,,'1111122,1111122,1111122' 
TCOON,ioos:station:TCOON:057:1,2012-04-10T12:00:00Z,28.4460,-96.3961,0.0,2.6,110.0,,'1111122,1111122,1111122' 
TCOON,ioos:station:TCOON:057:1,2012-04-10T13:00:00Z,28.4460,-96.3961,0.0,3.1,110.0,,'1111122,1111122,1111122' 
TCOON,ioos:station:TCOON:057:1,2012-04-10T14:00:00Z,28.4460,-96.3961,0.0,2.6,100.0,,'1111122,1111122,1111122' 
TCOON,ioos:station:TCOON:057:1,2012-04-10T15:00:00Z,28.4460,-96.3961,0.0,3.6,100.0,,'1111122,1111122,1111122' 
TCOON,ioos:station:TCOON:057:1,2012-04-10T16:00:00Z,28.4460,-96.3961,0.0,4.1,110.0,,'1111122,1111122,1111122' 
TCOON,ioos:station:TCOON:057:1,2012-04-10T17:00:00Z,28.4460,-96.3961,0.0,4.6,110.0,,'1111122,1111122,1111122' 
TCOON,ioos:station:TCOON:057:1,2012-04-10T18:00:00Z,28.4460,-96.3961,0.0,4.1,120.0,,'1111122,1111122,1111122' 
TCOON,ioos:station:TCOON:057:1,2012-04-10T19:00:00Z,28.4460,-96.3961,0.0,3.6,130.0,,'1111122,1111122,1111122' 
TCOON,ioos:station:TCOON:057:1,2012-04-10T20:00:00Z,28.4460,-96.3961,0.0,4.6,130.0,,'1111122,1111122,1111122' 
TCOON,ioos:station:TCOON:057:1,2012-04-10T21:00:00Z,28.4460,-96.3961,0.0,4.6,140.0,,'1111122,1111122,1111122' 
TCOON,ioos:station:TCOON:057:1,2012-04-10T22:00:00Z,28.4460,-96.3961,0.0,4.6,120.0,,'1111122,1111122,1111122' 
TCOON,ioos:station:TCOON:057:1,2012-04-10T23:00:00Z,28.4460,-96.3961,0.0,5.1,150.0,,'1111122,1111122,1111122' 
TCOON,ioos:station:TCOON:057:1,2012-04-11T00:00:00Z,28.4460,-96.3961,0.0,5.1,150.0,,'1111122,1111122,1111122' 
TCOON,ioos:station:TCOON:057:1,2012-04-11T01:00:00Z,28.4460,-96.3961,0.0,5.1,140.0,,'1111122,1111122,1111122' 
TCOON,ioos:station:TCOON:057:1,2012-04-11T02:00:00Z,28.4460,-96.3961,0.0,5.7,150.0,,'1111122,1111122,1111122' 
TCOON,ioos:station:TCOON:057:1,2012-04-11T03:00:00Z,28.4460,-96.3961,0.0,6.7,140.0,,'1111122,1111122,1111122' 
TCOON,ioos:station:TCOON:057:1,2012-04-11T04:00:00Z,28.4460,-96.3961,0.0,6.2,140.0,,'1111122,1111122,1111122' 
TCOON,ioos:station:TCOON:057:1,2012-04-11T05:00:00Z,28.4460,-96.3961,0.0,5.7,140.0,,'1111122,1111122,1111122' 
TCOON,ioos:station:TCOON:057:1,2012-04-11T06:00:00Z,28.4460,-96.3961,0.0,6.7,150.0,,'1111122,1111122,1111122' 
TCOON,ioos:station:TCOON:057:1,2012-04-11T07:00:00Z,28.4460,-96.3961,0.0,6.2,140.0,,'1111122,1111122,1111122' 
TCOON,ioos:station:TCOON:057:1,2012-04-11T08:00:00Z,28.4460,-96.3961,0.0,6.7,160.0,,'1111122,1111122,1111122' 
TCOON,ioos:station:TCOON:057:1,2012-04-11T09:00:00Z,28.4460,-96.3961,0.0,6.2,160.0,,'1111122,1111122,1111122' 
TCOON,ioos:station:TCOON:057:1,2012-04-11T10:00:00Z,28.4460,-96.3961,0.0,5.1,150.0,,'1111122,1111122,1111122' 
TCOON,ioos:station:TCOON:057:1,2012-04-11T11:00:00Z,28.4460,-96.3961,0.0,5.1,150.0,,'1111122,1111122,1111122' 
TCOON,ioos:station:TCOON:057:1,2012-04-11T12:00:00Z,28.4460,-96.3961,0.0,5.7,150.0,,'1111122,1111122,1111122' 
TCOON,ioos:station:TCOON:057:1,2012-04-11T13:00:00Z,28.4460,-96.3961,0.0,5.7,140.0,,'1111122,1111122,1111122' 
TCOON,ioos:station:TCOON:057:1,2012-04-11T14:00:00Z,28.4460,-96.3961,0.0,6.2,140.0,,'1111122,1111122,1111122' 
TCOON,ioos:station:TCOON:057:1,2012-04-11T15:00:00Z,28.4460,-96.3961,0.0,6.2,160.0,,'1111122,1111122,1111122' 
TCOON,ioos:station:TCOON:057:1,2012-04-11T16:00:00Z,28.4460,-96.3961,0.0,4.6,150.0,,'1111122,1111122,1111122' 
TCOON,ioos:station:TCOON:057:1,2012-04-11T17:00:00Z,28.4460,-96.3961,0.0,5.1,150.0,,'1111122,1111122,1111122' 
TCOON,ioos:station:TCOON:057:1,2012-04-11T18:00:00Z,28.4460,-96.3961,0.0,6.7,150.0,,'1111122,1111122,1111122' 
TCOON,ioos:station:TCOON:057:1,2012-04-11T19:00:00Z,28.4460,-96.3961,0.0,6.2,150.0,,'1111122,1111122,1111122' 
TCOON,ioos:station:TCOON:057:1,2012-04-11T20:00:00Z,28.4460,-96.3961,0.0,6.2,140.0,,'1111122,1111122,1111122' 
TCOON,ioos:station:TCOON:057:1,2012-04-11T21:00:00Z,28.4460,-96.3961,0.0,7.2,150.0,,'1111122,1111122,1111122' 
TCOON,ioos:station:TCOON:057:1,2012-04-11T22:00:00Z,28.4460,-96.3961,0.0,7.2,140.0,,'1111122,1111122,1111122' 
TCOON,ioos:station:TCOON:057:1,2012-04-11T23:00:00Z,28.4460,-96.3961,0.0,8.2,140.0,,'1111122,1111122,1111122' 
TCOON,ioos:station:TCOON:057:1,2012-04-12T00:00:00Z,28.4460,-96.3961,0.0,7.7,140.0,,'1111122,1111122,1111122' 
TCOON,ioos:station:TCOON:057:1,2012-04-12T01:00:00Z,28.4460,-96.3961,0.0,9.3,130.0,,'1111122,1111122,1111122' 
TCOON,ioos:station:TCOON:057:1,2012-04-12T02:00:00Z,28.4460,-96.3961,0.0,8.7,150.0,,'1111122,1111122,1111122' 
TCOON,ioos:station:TCOON:057:1,2012-04-12T03:00:00Z,28.4460,-96.3961,0.0,9.3,150.0,,'1111122,1111122,1111122' 
TCOON,ioos:station:TCOON:057:1,2012-04-12T04:00:00Z,28.4460,-96.3961,0.0,7.7,150.0,,'1111122,1111122,1111122' 
TCOON,ioos:station:TCOON:057:1,2012-04-12T05:00:00Z,28.4460,-96.3961,0.0,6.7,150.0,,'1111122,1111122,1111122' 
TCOON,ioos:station:TCOON:057:1,2012-04-12T06:00:00Z,28.4460,-96.3961,0.0,8.2,150.0,,'1111122,1111122,1111122' 
TCOON,ioos:station:TCOON:057:1,2012-04-12T07:00:00Z,28.4460,-96.3961,0.0,7.2,160.0,,'1111122,1111122,1111122' 
TCOON,ioos:station:TCOON:057:1,2012-04-12T08:00:00Z,28.4460,-96.3961,0.0,8.2,160.0,,'1111122,1111122,1111122' 
TCOON,ioos:station:TCOON:057:1,2012-04-12T09:00:00Z,28.4460,-96.3961,0.0,7.2,180.0,,'1111122,1111122,1111122' 
TCOON,ioos:station:TCOON:057:1,2012-04-12T10:00:00Z,28.4460,-96.3961,0.0,7.7,170.0,,'1111122,1111122,1111122' 
TCOON,ioos:station:TCOON:057:1,2012-04-12T11:00:00Z,28.4460,-96.3961,0.0,9.8,140.0,,'1111122,1111122,1111122' 
TCOON,ioos:station:TCOON:057:1,2012-04-12T12:00:00Z,28.4460,-96.3961,0.0,8.7,140.0,,'1111122,1111122,1111122' 
TCOON,ioos:station:TCOON:057:1,2012-04-12T13:00:00Z,28.4460,-96.3961,0.0,9.8,150.0,,'1111122,1111122,1111122' 
TCOON,ioos:station:TCOON:057:1,2012-04-12T14:00:00Z,28.4460,-96.3961,0.0,7.7,160.0,,'1111122,1111122,1111122' 
TCOON,ioos:station:TCOON:057:1,2012-04-12T15:00:00Z,28.4460,-96.3961,0.0,7.2,160.0,,'1111122,1111122,1111122' 
TCOON,ioos:station:TCOON:057:1,2012-04-12T16:00:00Z,28.4460,-96.3961,0.0,6.7,150.0,,'1111122,1111122,1111122' 
TCOON,ioos:station:TCOON:057:1,2012-04-12T17:00:00Z,28.4460,-96.3961,0.0,7.2,150.0,,'1111122,1111122,1111122' 
TCOON,ioos:station:TCOON:057:1,2012-04-12T18:00:00Z,28.4460,-96.3961,0.0,8.7,140.0,,'1111122,1111122,1111122' 
TCOON,ioos:station:TCOON:057:1,2012-04-12T19:00:00Z,28.4460,-96.3961,0.0,8.7,150.0,,'1111122,1111122,1111122' 
TCOON,ioos:station:TCOON:057:1,2012-04-12T20:00:00Z,28.4460,-96.3961,0.0,8.2,140.0,,'1111122,1111122,1111122' 
TCOON,ioos:station:TCOON:057:1,2012-04-12T21:00:00Z,28.4460,-96.3961,0.0,8.7,140.0,,'1111122,1111122,1111122' 
TCOON,ioos:station:TCOON:057:1,2012-04-12T22:00:00Z,28.4460,-96.3961,0.0,7.7,140.0,,'1111122,1111122,1111122' 
TCOON,ioos:station:TCOON:057:1,2012-04-12T23:00:00Z,28.4460,-96.3961,0.0,7.7,130.0,,'1111122,1111122,1111122' 
TCOON,ioos:station:TCOON:057:1,2012-04-13T00:00:00Z,28.4460,-96.3961,0.0,8.2,140.0,,'1111122,1111122,1111122' 
TCOON,ioos:station:TCOON:057:1,2012-04-13T01:00:00Z,28.4460,-96.3961,0.0,8.2,140.0,,'1111122,1111122,1111122' 
TCOON,ioos:station:TCOON:057:1,2012-04-13T02:00:00Z,28.4460,-96.3961,0.0,9.3,130.0,,'1111122,1111122,1111122' 
TCOON,ioos:station:TCOON:057:1,2012-04-13T03:00:00Z,28.4460,-96.3961,0.0,9.3,140.0,,'1111122,1111122,1111122' 
TCOON,ioos:station:TCOON:057:1,2012-04-13T04:00:00Z,28.4460,-96.3961,0.0,9.8,140.0,,'1111122,1111122,1111122' 
TCOON,ioos:station:TCOON:057:1,2012-04-13T05:00:00Z,28.4460,-96.3961,0.0,8.7,160.0,,'1111122,1111122,1111122' 
TCOON,ioos:station:TCOON:057:1,2012-04-13T06:00:00Z,28.4460,-96.3961,0.0,9.8,150.0,,'1111122,1111122,1111122' 
TCOON,ioos:station:TCOON:057:1,2012-04-13T07:00:00Z,28.4460,-96.3961,0.0,8.7,160.0,,'1111122,1111122,1111122' 
TCOON,ioos:station:TCOON:057:1,2012-04-13T08:00:00Z,28.4460,-96.3961,0.0,9.8,150.0,,'1111122,1111122,1111122' 
TCOON,ioos:station:TCOON:057:1,2012-04-13T09:00:00Z,28.4460,-96.3961,0.0,9.8,160.0,,'1111122,1111122,1111122' 
TCOON,ioos:station:TCOON:057:1,2012-04-13T10:00:00Z,28.4460,-96.3961,0.0,9.3,170.0,,'1111122,1111122,1111122' 
TCOON,ioos:station:TCOON:057:1,2012-04-13T11:00:00Z,28.4460,-96.3961,0.0,8.7,160.0,,'1111122,1111122,1111122' 
TCOON,ioos:station:TCOON:057:1,2012-04-13T12:00:00Z,28.4460,-96.3961,0.0,9.8,160.0,,'1111122,1111122,1111122' 
TCOON,ioos:station:TCOON:057:1,2012-04-13T13:00:00Z,28.4460,-96.3961,0.0,9.8,160.0,,'1111122,1111122,1111122' 
TCOON,ioos:station:TCOON:057:1,2012-04-13T14:00:00Z,28.4460,-96.3961,0.0,9.8,150.0,,'1111122,1111122,1111122' 
TCOON,ioos:station:TCOON:057:1,2012-04-13T15:00:00Z,28.4460,-96.3961,0.0,9.8,160.0,,'1111122,1111122,1111122' 
TCOON,ioos:station:TCOON:057:1,2012-04-13T16:00:00Z,28.4460,-96.3961,0.0,9.3,160.0,,'1111122,1111122,1111122' 
TCOON,ioos:station:TCOON:057:1,2012-04-13T17:00:00Z,28.4460,-96.3961,0.0,9.3,150.0,,'1111122,1111122,1111122' 
TCOON,ioos:station:TCOON:057:1,2012-04-13T18:00:00Z,28.4460,-96.3961,0.0,7.7,150.0,,'1111122,1111122,1111122' 
TCOON,ioos:station:TCOON:057:1,2012-04-13T19:00:00Z,28.4460,-96.3961,0.0,8.7,140.0,,'1111122,1111122,1111122' 
TCOON,ioos:station:TCOON:057:1,2012-04-13T20:00:00Z,28.4460,-96.3961,0.0,9.3,140.0,,'1111122,1111122,1111122' 
TCOON,ioos:station:TCOON:057:1,2012-04-13T21:00:00Z,28.4460,-96.3961,0.0,9.8,140.0,,'1111122,1111122,1111122' 
TCOON,ioos:station:TCOON:057:1,2012-04-13T22:00:00Z,28.4460,-96.3961,0.0,10.3,150.0,,'1111122,1111122,1111122' 
TCOON,ioos:station:TCOON:057:1,2012-04-13T23:00:00Z,28.4460,-96.3961,0.0,9.8,150.0,,'1111122,1111122,1111122' 
TCOON,ioos:station:TCOON:057:1,2012-04-14T00:00:00Z,28.4460,-96.3961,0.0,10.8,140.0,,'1111122,1111122,1111122' 
TCOON,ioos:station:TCOON:057:1,2012-04-14T01:00:00Z,28.4460,-96.3961,0.0,10.8,150.0,,'1111122,1111122,1111122' 
TCOON,ioos:station:TCOON:057:1,2012-04-14T02:00:00Z,28.4460,-96.3961,0.0,9.3,150.0,,'1111122,1111122,1111122' 
TCOON,ioos:station:TCOON:057:1,2012-04-14T03:00:00Z,28.4460,-96.3961,0.0,9.8,150.0,,'1111122,1111122,1111122' 
TCOON,ioos:station:TCOON:057:1,2012-04-14T04:00:00Z,28.4460,-96.3961,0.0,10.3,150.0,,'1111122,1111122,1111122' 
TCOON,ioos:station:TCOON:057:1,2012-04-14T05:00:00Z,28.4460,-96.3961,0.0,10.8,150.0,,'1111122,1111122,1111122' 
TCOON,ioos:station:TCOON:057:1,2012-04-14T06:00:00Z,28.4460,-96.3961,0.0,11.3,150.0,,'1111122,1111122,1111122' 
TCOON,ioos:station:TCOON:057:1,2012-04-14T07:00:00Z,28.4460,-96.3961,0.0,12.3,150.0,,'1111122,1111122,1111122' 
TCOON,ioos:station:TCOON:057:1,2012-04-14T08:00:00Z,28.4460,-96.3961,0.0,11.3,160.0,,'1111122,1111122,1111122' 
TCOON,ioos:station:TCOON:057:1,2012-04-14T09:00:00Z,28.4460,-96.3961,0.0,11.8,150.0,,'1111122,1111122,1111122' 
TCOON,ioos:station:TCOON:057:1,2012-04-14T10:00:00Z,28.4460,-96.3961,0.0,11.3,150.0,,'1111122,1111122,1111122' 
TCOON,ioos:station:TCOON:057:1,2012-04-14T11:00:00Z,28.4460,-96.3961,0.0,11.3,150.0,,'1111122,1111122,1111122' 
TCOON,ioos:station:TCOON:057:1,2012-04-14T12:00:00Z,28.4460,-96.3961,0.0,11.8,150.0,,'1111122,1111122,1111122' 